Lewisville Lake Weather Center

Moon Phase Calendar



Lewisville Lake Water Level
Online Cameras

 


      

Current Conditions in Little Elm
1/27/2021 12:44:25 AM

44°F
Feels Like 35
Clouds
Humidity
71%
Pressure
30.09"
Wind
9 mph (NNE)
Dew Point
35°F
UV Index
0/10 (Low)
Visibility
6 mi

Hourly Forecast

Date & Time Wed, Jan 27
12:00 AM
Wed, Jan 27
1:00 AM
Wed, Jan 27
2:00 AM
Wed, Jan 27
3:00 AM
Wed, Jan 27
4:00 AM
Wed, Jan 27
5:00 AM
Wed, Jan 27
6:00 AM
Wed, Jan 27
7:00 AM
Wed, Jan 27
8:00 AM
Wed, Jan 27
9:00 AM
Wed, Jan 27
10:00 AM
Wed, Jan 27
11:00 AM
Wed, Jan 27
12:00 PM
Wed, Jan 27
1:00 PM
Wed, Jan 27
2:00 PM
Wed, Jan 27
3:00 PM
Wed, Jan 27
4:00 PM
Wed, Jan 27
5:00 PM
Wed, Jan 27
6:00 PM
Wed, Jan 27
7:00 PM
Wed, Jan 27
8:00 PM
Wed, Jan 27
9:00 PM
Wed, Jan 27
10:00 PM
Wed, Jan 27
11:00 PM
Thu, Jan 28
12:00 AM
Thu, Jan 28
1:00 AM
Thu, Jan 28
2:00 AM
Thu, Jan 28
3:00 AM
Thu, Jan 28
4:00 AM
Thu, Jan 28
5:00 AM
Thu, Jan 28
6:00 AM
Thu, Jan 28
7:00 AM
Thu, Jan 28
8:00 AM
Thu, Jan 28
9:00 AM
Thu, Jan 28
10:00 AM
Thu, Jan 28
11:00 AM
Thu, Jan 28
12:00 PM
Thu, Jan 28
1:00 PM
Thu, Jan 28
2:00 PM
Thu, Jan 28
3:00 PM
Thu, Jan 28
4:00 PM
Thu, Jan 28
5:00 PM
Thu, Jan 28
6:00 PM
Thu, Jan 28
7:00 PM
Thu, Jan 28
8:00 PM
Thu, Jan 28
9:00 PM
Thu, Jan 28
10:00 PM
Thu, Jan 28
11:00 PM
Condition
Rain

Clouds

Clouds

Clouds

Clouds

Clouds

Clouds

Clear

Clear

Clear

Clear

Clear

Clear

Clear

Clear

Clear

Clear

Clear

Clear

Clear

Clear

Clear

Clouds

Clouds

Clouds

Clouds

Clouds

Clouds

Clouds

Clouds

Clouds

Clouds

Clouds

Clouds

Clouds

Clouds

Clouds

Clouds

Clouds

Clouds

Clouds

Clouds

Clouds

Clouds

Clouds

Clouds

Clouds

Clouds
Temperature 44°F44°F45°F46°F45°F44°F43°F42°F41°F42°F44°F46°F48°F49°F50°F50°F49°F48°F45°F43°F42°F40°F40°F39°F38°F38°F37°F36°F36°F36°F35°F35°F35°F37°F39°F41°F44°F46°F47°F48°F49°F48°F46°F45°F45°F44°F43°F43°F
Feels Like 33°F37°F37°F41°F41°F38°F37°F36°F33°F34°F34°F35°F36°F38°F38°F38°F38°F37°F36°F34°F33°F33°F32°F32°F31°F30°F30°F29°F29°F29°F28°F28°F28°F29°F32°F34°F36°F39°F40°F41°F41°F40°F39°F38°F37°F37°F36°F35°F
Cloudiness 49%74%89%97%97%97%80%0%0%0%0%0%0%0%0%0%0%0%0%0%0%5%29%43%53%100%100%99%99%100%100%79%81%87%84%86%89%100%100%100%100%100%100%100%95%87%67%58%
Visibility 6 mi6 mi6 mi6 mi6 mi6 mi6 mi6 mi6 mi6 mi6 mi6 mi6 mi6 mi6 mi6 mi6 mi6 mi6 mi6 mi6 mi6 mi6 mi6 mi6 mi6 mi6 mi6 mi6 mi6 mi6 mi6 mi6 mi6 mi6 mi6 mi6 mi6 mi6 mi6 mi6 mi6 mi6 mi6 mi6 mi6 mi6 mi6 mi
Precipitation 37%84%88%82%78%74%70%0%0%0%0%0%0%0%0%0%0%0%0%0%0%0%0%0%0%0%0%0%0%0%0%0%0%0%0%0%0%0%0%0%0%0%0%0%0%0%0%0%
Humidity 71%76%79%77%80%82%84%84%82%73%68%64%59%55%52%50%50%53%59%63%67%70%71%73%74%76%78%80%81%82%84%85%84%78%70%64%59%55%52%50%49%52%56%59%60%61%63%64%
Dew Point 35°F37°F39°F39°F39°F39°F39°F38°F36°F35°F34°F34°F34°F34°F33°F32°F31°F31°F31°F31°F30°F30°F29°F29°F28°F28°F28°F28°F28°F28°F27°F27°F26°F26°F25°F26°F26°F26°F26°F27°F27°F29°F30°F31°F31°F31°F30°F30°F
Pressure 30.09"30.09"30.12"30.12"30.12"30.12"30.15"30.18"30.21"30.27"30.3"30.33"30.36"30.36"30.33"30.33"30.36"30.39"30.42"30.45"30.47"30.47"30.5"30.53"30.56"30.56"30.56"30.56"30.56"30.56"30.56"30.59"30.59"30.62"30.59"30.59"30.59"30.56"30.5"30.47"30.45"30.45"30.45"30.45"30.45"30.45"30.45"30.42"
Wind Speed 13.2 mph7.6 mph10.4 mph5.4 mph2.4 mph6.8 mph6.2 mph6.8 mph8.8 mph8.9 mph11.6 mph12.9 mph14.7 mph14 mph13.9 mph14 mph13.3 mph12.8 mph10.5 mph10.2 mph9.2 mph7.1 mph6.6 mph6.4 mph5.7 mph7 mph6.3 mph6 mph5.5 mph5.6 mph5.6 mph6 mph6.2 mph7 mph6.8 mph6.9 mph6.1 mph5.8 mph5.8 mph6.3 mph6.5 mph7.1 mph7.3 mph6.4 mph7.1 mph6.4 mph6.5 mph7.9 mph
Wind
Direction
333°
NNW
315°
NW
98°
E
118°
ESE
303°
WNW
329°
NNW
330°
NNW
344°
NNW

N

N
359°
N
357°
N
356°
N
356°
N
353°
N
355°
N
359°
N

N

N
16°
NNE
24°
NNE
26°
NNE
28°
NNE
25°
NNE
27°
NNE
34°
NE
40°
NE
54°
NE
66°
ENE
68°
ENE
70°
ENE
70°
ENE
70°
ENE
84°
E
106°
ESE
119°
ESE
134°
SE
141°
SE
137°
SE
140°
SE
133°
SE
127°
SE
123°
ESE
135°
SE
134°
SE
142°
SE
149°
SSE
152°
SSE

Daily Forecast

Date High Low Precip. Humidity
Today
Jan 27

Clear
51 °F
40 °F
33%
56%
Thursday
Jan 28

Clouds
49 °F
36 °F
0%
58%
Friday
Jan 29

Clouds
58 °F
43 °F
0%
52%
Saturday
Jan 30

Rain
69 °F
56 °F
100%
29%
Sunday
Jan 31

Clear
60 °F
47 °F
0%
46%
Monday
Feb 1

Clear
63 °F
44 °F
0%
35%
Tuesday
Feb 2

Clouds
63 °F
51 °F
0%
38%
Wednesday
Feb 3

Clouds
64 °F
55 °F
0%
78%
Thursday
Feb 4

Rain
65 °F
45 °F
100%
43%
Friday
Feb 5

Clear
47 °F
33 °F
0%
54%
Saturday
Feb 6

Clouds
53 °F
35 °F
0%
43%
Sunday
Feb 7

Clouds
55 °F
41 °F
0%
44%
Monday
Feb 8

Rain
47 °F
39 °F
100%
79%
Tuesday
Feb 9

Rain
46 °F
34 °F
100%
69%
Wednesday
Feb 10

Clear
54 °F
39 °F
0%
54%
Thursday
Feb 11

Clouds
42 °F
40 °F
0%
76%


Temperature 8-14 Day Outlook



Precipitation 8-14 Day Outlook




Quick Links
Lewisville Lake News
Lewisville Lake Photos
Lewisville Lake Videos




About Us
Contact Us
Site Map
Search Site
Advertise With Us
   
Lewisville.LakesOnline.com
THE LEWISVILLE LAKE WEBSITE

Copyright 2021, Lakes Online
Privacy    |    Legal